星链-4047 (STARLINK-4047 )

导读

STARLINK-4047是美国太空探索技术公司 SpaceX 星链计划中的卫星,于2022年7月24日发射升空,属于低轨互联网卫星星座的组成部分。它依托星链网络布局,为全球范围提供高速卫星互联网接入服务,可补充偏远地区网络覆盖,也为航空、海事等移动场景提供网络支持,服役至今承担星链星座的通信传输任务。

基本信息
目录编号:
53243
目录名称:
STARLINK-4047
国际标识:
2022-086B
轨道中心:
EARTH
卫星名称:
星链-4047
卫星全名:
星链-4047 (STARLINK-4047 )
卫星状态:
在轨 (已飞行1424 天)
发射日期:
2022-07-24 UTC
国别 :
美国 (US)
星等 :
--
轨道信息
数据来源 国际轨道数据 AOE轨道数据
星历时间 2026-06-17T10:26:44+0800
11小时前
查看轨道信息
2026-06-14T03:00:00+0800
3天前
查看轨道信息
半长轴 6917.913km 6917.898km
偏心率 0.0001286 0.0001487
轨道倾角 53.161° 53.157°
近地点辐角 88.686° 63.702°
升交点赤经 117.440° 132.326°
平近点角 271.428° 306.097°
近地点 538.886km 538.732km
远地点 540.666km 540.79km
周期 95.438分钟 95.438分钟
每日圈数 15.088295 15.088343
详细信息
固有亮度:
5
最大亮度:
2.5
卫星平台:
Starlink v1.5
覆盖范围:
全球
运营商:
太空探索技术公司
运营商所在国:
美国
制造商(研发单位):
太空探索技术公司
制造商所在国:
美国
使用方式:
暂无
卫星简介
星链(Starlink)计划是由太空探索技术公司(SpaceX)提出的一个巨型低轨卫星互联网星座项目,计划在2019年至2024年间在太空搭建由约1.2万颗卫星组成的“星链”网络,其中1584颗将部署在地球上空550千米处的近地轨道,并从2020年开始工作。该卫星仍在工作。
2D轨道图
3D轨道图
轨道高度分析图
轨道倾角分析图
轨道综合分析图
查看轨道综合分析图